Wetterdaten: Sonntag, 08.04.2007
Datum Zeit Temp. A. Feuchte A. Luftdruck Regen Wind Richtung Richtung Sonnenschein UV Solar Windben
08.04.2007 00:00 4,2 C 85 % 1025,8 hPa 0,0 mm 0,0 km/h (0 Bft) N 0 0 min 0 UV-I 0 W/m 0,0 km/h (0 Bft)
08.04.2007 00:10 4,1 C 86 % 1025,8 hPa 0,0 mm 0,0 km/h (0 Bft) N 0 0 min 0 UV-I 0 W/m 0,0 km/h (0 Bft)
08.04.2007 00:20 3,9 C 87 % 1025,7 hPa 0,0 mm 0,0 km/h (0 Bft) N 0 0 min 0 UV-I 0 W/m 0,0 km/h (0 Bft)
08.04.2007 00:30 3,9 C 86 % 1025,7 hPa 0,0 mm 0,0 km/h (0 Bft) N 0 0 min 0 UV-I 0 W/m 0,0 km/h (0 Bft)
08.04.2007 00:40 3,9 C 87 % 1025,6 hPa 0,0 mm 0,0 km/h (0 Bft) N 0 0 min 0 UV-I 0 W/m 0,0 km/h (0 Bft)
08.04.2007 00:50 3,7 C 86 % 1025,6 hPa 0,0 mm 0,0 km/h (0 Bft) N 0 0 min 0 UV-I 0 W/m 0,0 km/h (0 Bft)
08.04.2007 01:00 3,6 C 87 % 1025,6 hPa 0,0 mm 0,0 km/h (0 Bft) N 0 0 min 0 UV-I 0 W/m 0,0 km/h (0 Bft)
08.04.2007 01:10 3,3 C 87 % 1025,6 hPa 0,0 mm 0,0 km/h (0 Bft) N 0 0 min 0 UV-I 0 W/m 0,0 km/h (0 Bft)
08.04.2007 01:20 3,2 C 87 % 1025,7 hPa 0,0 mm 0,0 km/h (0 Bft) N 0 0 min 0 UV-I 0 W/m 0,0 km/h (0 Bft)
08.04.2007 01:30 3,2 C 87 % 1025,8 hPa 0,0 mm 0,0 km/h (0 Bft) N 0 0 min 0 UV-I 0 W/m 0,0 km/h (0 Bft)
08.04.2007 01:40 3,1 C 87 % 1025,9 hPa 0,0 mm 0,0 km/h (0 Bft) N 0 0 min 0 UV-I 0 W/m 0,0 km/h (0 Bft)
08.04.2007 01:50 3,1 C 88 % 1025,8 hPa 0,0 mm 0,0 km/h (0 Bft) N 0 0 min 0 UV-I 0 W/m 0,0 km/h (0 Bft)
08.04.2007 02:00 3,1 C 88 % 1025,8 hPa 0,0 mm 0,0 km/h (0 Bft) N 0 0 min 0 UV-I 0 W/m 0,0 km/h (0 Bft)
08.04.2007 02:10 2,9 C 88 % 1025,7 hPa 0,0 mm 0,0 km/h (0 Bft) W-SW 247 0 min 0 UV-I 0 W/m 1,6 km/h (1 Bft)
08.04.2007 02:20 2,8 C 88 % 1025,6 hPa 0,0 mm 0,0 km/h (0 Bft) N 0 0 min 0 UV-I 0 W/m 0,0 km/h (0 Bft)
08.04.2007 02:30 2,8 C 88 % 1025,7 hPa 0,0 mm 0,0 km/h (0 Bft) N 0 0 min 0 UV-I 0 W/m 0,0 km/h (0 Bft)
08.04.2007 02:40 2,6 C 88 % 1025,7 hPa 0,0 mm 0,0 km/h (0 Bft) N 0 0 min 0 UV-I 0 W/m 0,0 km/h (0 Bft)
08.04.2007 02:50 2,4 C 88 % 1025,8 hPa 0,0 mm 0,0 km/h (0 Bft) N 0 0 min 0 UV-I 0 W/m 0,0 km/h (0 Bft)
08.04.2007 03:00 2,2 C 89 % 1025,8 hPa 0,0 mm 0,0 km/h (0 Bft) N 0 0 min 0 UV-I 0 W/m 0,0 km/h (0 Bft)
08.04.2007 03:10 2,4 C 89 % 1025,8 hPa 0,0 mm 0,0 km/h (0 Bft) N 0 0 min 0 UV-I 0 W/m 0,0 km/h (0 Bft)
08.04.2007 03:20 2,9 C 89 % 1025,9 hPa 0,0 mm 0,0 km/h (0 Bft) N 0 0 min 0 UV-I 0 W/m 0,0 km/h (0 Bft)
08.04.2007 03:30 3,2 C 90 % 1025,9 hPa 0,0 mm 0,0 km/h (0 Bft) N 0 0 min 0 UV-I 0 W/m 0,0 km/h (0 Bft)
08.04.2007 03:40 3,5 C 90 % 1025,8 hPa 0,0 mm 0,0 km/h (0 Bft) N 0 0 min 0 UV-I 0 W/m 0,0 km/h (0 Bft)
08.04.2007 03:50 3,8 C 90 % 1025,8 hPa 0,0 mm 0,0 km/h (0 Bft) N 0 0 min 0 UV-I 0 W/m 0,0 km/h (0 Bft)
08.04.2007 04:00 4,2 C 89 % 1025,8 hPa 0,0 mm 0,0 km/h (0 Bft) N 0 0 min 0 UV-I 0 W/m 0,0 km/h (0 Bft)
08.04.2007 04:10 4,4 C 87 % 1025,8 hPa 0,0 mm 0,0 km/h (0 Bft) N 0 0 min 0 UV-I 0 W/m 0,0 km/h (0 Bft)
08.04.2007 04:20 4,6 C 92 % 1025,8 hPa 0,0 mm 0,0 km/h (0 Bft) N 0 0 min 0 UV-I 0 W/m 0,0 km/h (0 Bft)
08.04.2007 04:30 4,7 C 87 % 1025,7 hPa 0,0 mm 0,0 km/h (0 Bft) N 0 0 min 0 UV-I 0 W/m 0,0 km/h (0 Bft)
08.04.2007 04:40 4,6 C 87 % 1025,7 hPa 0,0 mm 0,0 km/h (0 Bft) W-SW 247 0 min 0 UV-I 0 W/m 1,6 km/h (1 Bft)
08.04.2007 04:50 4,4 C 87 % 1025,8 hPa 0,0 mm 0,0 km/h (0 Bft) W-SW 247 0 min 0 UV-I 0 W/m 1,6 km/h (1 Bft)
08.04.2007 05:00 4,4 C 88 % 1025,8 hPa 0,0 mm 0,0 km/h (0 Bft) W-SW 247 0 min 0 UV-I 0 W/m 3,2 km/h (1 Bft)
08.04.2007 05:10 4,7 C 88 % 1025,8 hPa 0,0 mm 0,0 km/h (0 Bft) W-SW 247 0 min 0 UV-I 0 W/m 3,2 km/h (1 Bft)
08.04.2007 05:20 4,8 C 88 % 1025,7 hPa 0,0 mm 0,0 km/h (0 Bft) W-SW 247 0 min 0 UV-I 0 W/m 3,2 km/h (1 Bft)
08.04.2007 05:30 4,9 C 87 % 1025,8 hPa 0,0 mm 0,0 km/h (0 Bft) SW 225 0 min 0 UV-I 0 W/m 3,2 km/h (1 Bft)
08.04.2007 05:40 4,9 C 87 % 1025,8 hPa 0,0 mm 0,0 km/h (0 Bft) SW 225 0 min 0 UV-I 0 W/m 3,2 km/h (1 Bft)
08.04.2007 05:50 4,9 C 87 % 1025,7 hPa 0,0 mm 1,6 km/h (1 Bft) SW 225 0 min 0 UV-I 0 W/m 4,8 km/h (1 Bft)
08.04.2007 06:00 4,9 C 88 % 1025,7 hPa 0,0 mm 0,0 km/h (0 Bft) SW 225 0 min 0 UV-I 0 W/m 3,2 km/h (1 Bft)
08.04.2007 06:10 4,9 C 88 % 1025,8 hPa 0,0 mm 0,0 km/h (0 Bft) SW 225 0 min 0 UV-I 0 W/m 1,6 km/h (1 Bft)
08.04.2007 06:20 4,9 C 88 % 1025,9 hPa 0,0 mm 0,0 km/h (0 Bft) SW 225 0 min 0 UV-I 0 W/m 3,2 km/h (1 Bft)
08.04.2007 06:30 5,0 C 88 % 1025,8 hPa 0,0 mm 1,6 km/h (1 Bft) SW 225 0 min 0 UV-I 0 W/m 3,2 km/h (1 Bft)
08.04.2007 06:40 5,1 C 88 % 1025,9 hPa 0,0 mm 1,6 km/h (1 Bft) SW 225 0 min 0 UV-I 0 W/m 4,8 km/h (1 Bft)
08.04.2007 06:50 5,1 C 88 % 1025,9 hPa 0,0 mm 1,6 km/h (1 Bft) W-SW 247 0 min 0 UV-I 0 W/m 4,8 km/h (1 Bft)
08.04.2007 07:00 5,2 C 88 % 1025,9 hPa 0,0 mm 1,6 km/h (1 Bft) SW 225 0 min 0 UV-I 7 W/m 4,8 km/h (1 Bft)
08.04.2007 07:10 5,1 C 89 % 1025,8 hPa 0,0 mm 0,0 km/h (0 Bft) S-SW 202 0 min 0 UV-I 16 W/m 3,2 km/h (1 Bft)
08.04.2007 07:20 5,1 C 89 % 1025,7 hPa 0,0 mm 0,0 km/h (0 Bft) S-SW 202 0 min 0 UV-I 23 W/m 3,2 km/h (1 Bft)
08.04.2007 07:30 5,2 C 89 % 1025,8 hPa 0,0 mm 1,6 km/h (1 Bft) SW 225 0 min 0 UV-I 28 W/m 4,8 km/h (1 Bft)
08.04.2007 07:40 5,3 C 89 % 1025,7 hPa 0,0 mm 1,6 km/h (1 Bft) SW 225 0 min 0 UV-I 37 W/m 4,8 km/h (1 Bft)
08.04.2007 07:50 5,5 C 89 % 1025,8 hPa 0,0 mm 1,6 km/h (1 Bft) W-SW 247 0 min 0 UV-I 44 W/m 6,4 km/h (2 Bft)
08.04.2007 08:00 5,7 C 88 % 1025,8 hPa 0,0 mm 1,6 km/h (1 Bft) SW 225 0 min 0 UV-I 49 W/m 4,8 km/h (1 Bft)
08.04.2007 08:10 5,8 C 88 % 1026,0 hPa 0,0 mm 1,6 km/h (1 Bft) SW 225 0 min 0 UV-I 54 W/m 4,8 km/h (1 Bft)
08.04.2007 08:20 6,0 C 87 % 1025,9 hPa 0,0 mm 1,6 km/h (1 Bft) SW 225 0 min 0 UV-I 67 W/m 4,8 km/h (1 Bft)
08.04.2007 08:30 6,1 C 87 % 1025,8 hPa 0,0 mm 1,6 km/h (1 Bft) SW 225 0 min 0 UV-I 81 W/m 4,8 km/h (1 Bft)
08.04.2007 08:40 6,3 C 86 % 1025,7 hPa 0,0 mm 1,6 km/h (1 Bft) SW 225 0 min 0 UV-I 97 W/m 8,0 km/h (2 Bft)
08.04.2007 08:50 6,4 C 86 % 1025,8 hPa 0,0 mm 1,6 km/h (1 Bft) SW 225 0 min 0 UV-I 102 W/m 4,8 km/h (1 Bft)
08.04.2007 09:00 6,6 C 85 % 1025,7 hPa 0,0 mm 1,6 km/h (1 Bft) S-SW 202 0 min 0 UV-I 125 W/m 4,8 km/h (1 Bft)
08.04.2007 09:10 6,7 C 84 % 1025,8 hPa 0,0 mm 1,6 km/h (1 Bft) SW 225 0 min 1 UV-I 146 W/m 6,4 km/h (2 Bft)
08.04.2007 09:20 6,9 C 84 % 1025,8 hPa 0,0 mm 1,6 km/h (1 Bft) S-SW 202 0 min 1 UV-I 160 W/m 4,8 km/h (1 Bft)
08.04.2007 09:30 7,2 C 83 % 1025,9 hPa 0,0 mm 1,6 km/h (1 Bft) W-SW 247 0 min 1 UV-I 178 W/m 3,2 km/h (1 Bft)
08.04.2007 09:40 7,3 C 82 % 1025,8 hPa 0,0 mm 1,6 km/h (1 Bft) W-SW 247 0 min 1 UV-I 209 W/m 6,4 km/h (2 Bft)
08.04.2007 09:50 7,5 C 81 % 1025,8 hPa 0,0 mm 1,6 km/h (1 Bft) W 270 10 min 1 UV-I 264 W/m 8,0 km/h (2 Bft)
08.04.2007 10:00 7,8 C 80 % 1025,8 hPa 0,0 mm 1,6 km/h (1 Bft) W 270 10 min 1 UV-I 285 W/m 8,0 km/h (2 Bft)
08.04.2007 10:10 8,0 C 79 % 1025,8 hPa 0,0 mm 1,6 km/h (1 Bft) W-SW 247 10 min 2 UV-I 360 W/m 8,0 km/h (2 Bft)
08.04.2007 10:20 8,2 C 79 % 1025,8 hPa 0,0 mm 1,6 km/h (1 Bft) SW 225 10 min 2 UV-I 429 W/m 6,4 km/h (2 Bft)
08.04.2007 10:30 8,6 C 76 % 1025,8 hPa 0,0 mm 1,6 km/h (1 Bft) W-SW 247 10 min 2 UV-I 466 W/m 9,7 km/h (2 Bft)
08.04.2007 10:40 8,8 C 75 % 1025,8 hPa 0,0 mm 1,6 km/h (1 Bft) W-SW 247 10 min 2 UV-I 432 W/m 6,4 km/h (2 Bft)
08.04.2007 10:50 8,7 C 76 % 1025,8 hPa 0,0 mm 1,6 km/h (1 Bft) W 270 10 min 2 UV-I 341 W/m 4,8 km/h (1 Bft)
08.04.2007 11:00 8,9 C 75 % 1025,9 hPa 0,0 mm 1,6 km/h (1 Bft) W 270 10 min 3 UV-I 640 W/m 6,4 km/h (2 Bft)
08.04.2007 11:10 9,2 C 73 % 1025,9 hPa 0,0 mm 1,6 km/h (1 Bft) SW 225 10 min 3 UV-I 642 W/m 6,4 km/h (2 Bft)
08.04.2007 11:20 9,7 C 70 % 1025,8 hPa 0,0 mm 1,6 km/h (1 Bft) W-SW 247 10 min 3 UV-I 624 W/m 6,4 km/h (2 Bft)
08.04.2007 11:30 10,1 C 70 % 1025,8 hPa 0,0 mm 1,6 km/h (1 Bft) S-SW 202 10 min 3 UV-I 640 W/m 8,0 km/h (2 Bft)
08.04.2007 11:40 10,2 C 68 % 1025,7 hPa 0,0 mm 1,6 km/h (1 Bft) W-SW 247 10 min 3 UV-I 652 W/m 9,7 km/h (2 Bft)
08.04.2007 11:50 10,4 C 67 % 1025,6 hPa 0,0 mm 1,6 km/h (1 Bft) SW 225 10 min 4 UV-I 677 W/m 4,8 km/h (1 Bft)
08.04.2007 12:00 10,8 C 68 % 1025,5 hPa 0,0 mm 1,6 km/h (1 Bft) W-SW 247 10 min 4 UV-I 687 W/m 6,4 km/h (2 Bft)
08.04.2007 12:10 11,1 C 65 % 1025,5 hPa 0,0 mm 1,6 km/h (1 Bft) SW 225 10 min 4 UV-I 687 W/m 8,0 km/h (2 Bft)
08.04.2007 12:20 11,3 C 63 % 1025,4 hPa 0,0 mm 3,2 km/h (1 Bft) W-SW 247 10 min 4 UV-I 712 W/m 6,4 km/h (2 Bft)
08.04.2007 12:30 11,8 C 60 % 1025,3 hPa 0,0 mm 1,6 km/h (1 Bft) W 270 10 min 4 UV-I 712 W/m 6,4 km/h (2 Bft)
08.04.2007 12:40 12,1 C 60 % 1025,3 hPa 0,0 mm 3,2 km/h (1 Bft) W-SW 247 10 min 4 UV-I 744 W/m 8,0 km/h (2 Bft)
08.04.2007 12:50 12,2 C 60 % 1025,2 hPa 0,0 mm 1,6 km/h (1 Bft) W 270 10 min 4 UV-I 758 W/m 8,0 km/h (2 Bft)
08.04.2007 13:00 12,2 C 59 % 1025,1 hPa 0,0 mm 3,2 km/h (1 Bft) W-SW 247 10 min 4 UV-I 770 W/m 8,0 km/h (2 Bft)
08.04.2007 13:10 12,3 C 56 % 1025,0 hPa 0,0 mm 1,6 km/h (1 Bft) S-SW 202 10 min 4 UV-I 793 W/m 6,4 km/h (2 Bft)
08.04.2007 13:20 12,7 C 54 % 1024,8 hPa 0,0 mm 3,2 km/h (1 Bft) W-SW 247 10 min 4 UV-I 782 W/m 11,3 km/h (2 Bft)
08.04.2007 13:30 13,1 C 54 % 1024,8 hPa 0,0 mm 3,2 km/h (1 Bft) W 270 10 min 4 UV-I 828 W/m 11,3 km/h (2 Bft)
08.04.2007 13:40 13,4 C 55 % 1024,7 hPa 0,0 mm 1,6 km/h (1 Bft) W-SW 247 10 min 4 UV-I 816 W/m 9,7 km/h (2 Bft)
08.04.2007 13:50 13,5 C 51 % 1024,5 hPa 0,0 mm 3,2 km/h (1 Bft) W-SW 247 10 min 4 UV-I 782 W/m 16,1 km/h (3 Bft)
08.04.2007 14:00 13,2 C 56 % 1024,4 hPa 0,0 mm 3,2 km/h (1 Bft) W-SW 247 10 min 4 UV-I 719 W/m 9,7 km/h (2 Bft)
08.04.2007 14:10 13,4 C 52 % 1024,3 hPa 0,0 mm 3,2 km/h (1 Bft) W-SW 247 10 min 4 UV-I 768 W/m 11,3 km/h (2 Bft)
08.04.2007 14:20 13,9 C 49 % 1024,3 hPa 0,0 mm 3,2 km/h (1 Bft) W-SW 247 10 min 4 UV-I 777 W/m 8,0 km/h (2 Bft)
08.04.2007 14:30 14,1 C 52 % 1024,0 hPa 0,0 mm 3,2 km/h (1 Bft) W-SW 247 10 min 4 UV-I 780 W/m 11,3 km/h (2 Bft)
08.04.2007 14:40 14,4 C 50 % 1023,9 hPa 0,0 mm 4,8 km/h (1 Bft) W-SW 247 10 min 4 UV-I 758 W/m 11,3 km/h (2 Bft)
08.04.2007 14:50 14,6 C 48 % 1023,8 hPa 0,0 mm 3,2 km/h (1 Bft) W-SW 247 10 min 4 UV-I 754 W/m 9,7 km/h (2 Bft)
08.04.2007 15:00 14,4 C 49 % 1023,6 hPa 0,0 mm 4,8 km/h (1 Bft) SW 225 10 min 4 UV-I 715 W/m 11,3 km/h (2 Bft)
08.04.2007 15:10 14,2 C 49 % 1023,4 hPa 0,0 mm 3,2 km/h (1 Bft) W-SW 247 10 min 4 UV-I 712 W/m 11,3 km/h (2 Bft)
08.04.2007 15:20 14,7 C 49 % 1023,3 hPa 0,0 mm 3,2 km/h (1 Bft) W-SW 247 10 min 3 UV-I 744 W/m 11,3 km/h (2 Bft)
08.04.2007 15:30 14,7 C 48 % 1023,2 hPa 0,0 mm 4,8 km/h (1 Bft) W-SW 247 10 min 3 UV-I 708 W/m 14,5 km/h (3 Bft)
08.04.2007 15:40 14,6 C 50 % 1023,1 hPa 0,0 mm 3,2 km/h (1 Bft) SW 225 10 min 3 UV-I 640 W/m 9,7 km/h (2 Bft)
08.04.2007 15:50 14,4 C 49 % 1022,9 hPa 0,0 mm 3,2 km/h (1 Bft) SW 225 10 min 3 UV-I 640 W/m 9,7 km/h (2 Bft)
08.04.2007 16:00 14,7 C 49 % 1022,8 hPa 0,0 mm 3,2 km/h (1 Bft) W-SW 247 10 min 3 UV-I 584 W/m 14,5 km/h (3 Bft)
08.04.2007 16:10 14,9 C 47 % 1022,7 hPa 0,0 mm 4,8 km/h (1 Bft) SW 225 10 min 2 UV-I 580 W/m 11,3 km/h (2 Bft)
08.04.2007 16:20 14,7 C 45 % 1022,6 hPa 0,0 mm 4,8 km/h (1 Bft) W-SW 247 10 min 2 UV-I 552 W/m 16,1 km/h (3 Bft)
08.04.2007 16:30 14,7 C 47 % 1022,5 hPa 0,0 mm 3,2 km/h (1 Bft) W-SW 247 10 min 2 UV-I 504 W/m 9,7 km/h (2 Bft)
08.04.2007 16:40 15,0 C 45 % 1022,5 hPa 0,0 mm 4,8 km/h (1 Bft) W-SW 247 10 min 2 UV-I 512 W/m 16,1 km/h (3 Bft)
08.04.2007 16:50 14,8 C 45 % 1022,3 hPa 0,0 mm 4,8 km/h (1 Bft) SW 225 10 min 2 UV-I 482 W/m 14,5 km/h (3 Bft)
08.04.2007 17:00 14,9 C 46 % 1022,2 hPa 0,0 mm 3,2 km/h (1 Bft) W-SW 247 10 min 2 UV-I 445 W/m 9,7 km/h (2 Bft)
08.04.2007 17:10 14,8 C 47 % 1022,1 hPa 0,0 mm 3,2 km/h (1 Bft) W-SW 247 10 min 1 UV-I 390 W/m 16,1 km/h (3 Bft)
08.04.2007 17:20 14,9 C 47 % 1022,0 hPa 0,0 mm 3,2 km/h (1 Bft) W-SW 247 10 min 1 UV-I 381 W/m 9,7 km/h (2 Bft)
08.04.2007 17:30 14,7 C 46 % 1022,0 hPa 0,0 mm 3,2 km/h (1 Bft) W 270 10 min 1 UV-I 357 W/m 11,3 km/h (2 Bft)
08.04.2007 17:40 14,4 C 49 % 1021,8 hPa 0,0 mm 3,2 km/h (1 Bft) W 270 10 min 1 UV-I 234 W/m 8,0 km/h (2 Bft)
08.04.2007 17:50 14,3 C 48 % 1021,7 hPa 0,0 mm 3,2 km/h (1 Bft) W-SW 247 0 min 1 UV-I 193 W/m 9,7 km/h (2 Bft)
08.04.2007 18:00 14,1 C 50 % 1021,6 hPa 0,0 mm 3,2 km/h (1 Bft) W-SW 247 0 min 1 UV-I 156 W/m 9,7 km/h (2 Bft)
08.04.2007 18:10 13,9 C 49 % 1021,5 hPa 0,0 mm 3,2 km/h (1 Bft) W-SW 247 0 min 1 UV-I 151 W/m 11,3 km/h (2 Bft)
08.04.2007 18:20 14,0 C 51 % 1021,4 hPa 0,0 mm 3,2 km/h (1 Bft) W-SW 247 10 min 0 UV-I 163 W/m 9,7 km/h (2 Bft)
08.04.2007 18:30 14,0 C 49 % 1021,3 hPa 0,0 mm 3,2 km/h (1 Bft) SW 225 10 min 0 UV-I 167 W/m 9,7 km/h (2 Bft)
08.04.2007 18:40 14,1 C 50 % 1021,2 hPa 0,0 mm 1,6 km/h (1 Bft) W-SW 247 10 min 0 UV-I 162 W/m 9,7 km/h (2 Bft)
08.04.2007 18:50 14,1 C 50 % 1021,1 hPa 0,0 mm 3,2 km/h (1 Bft) W-SW 247 10 min 0 UV-I 192 W/m 8,0 km/h (2 Bft)
08.04.2007 19:00 14,0 C 50 % 1020,9 hPa 0,0 mm 3,2 km/h (1 Bft) W 270 10 min 0 UV-I 146 W/m 11,3 km/h (2 Bft)
08.04.2007 19:10 13,8 C 51 % 1020,8 hPa 0,0 mm 3,2 km/h (1 Bft) W-SW 247 10 min 0 UV-I 111 W/m 8,0 km/h (2 Bft)
08.04.2007 19:20 13,7 C 51 % 1020,7 hPa 0,0 mm 1,6 km/h (1 Bft) S-SW 202 10 min 0 UV-I 90 W/m 4,8 km/h (1 Bft)
08.04.2007 19:30 13,4 C 52 % 1020,6 hPa 0,0 mm 3,2 km/h (1 Bft) W-SW 247 10 min 0 UV-I 56 W/m 8,0 km/h (2 Bft)
08.04.2007 19:40 13,2 C 53 % 1020,5 hPa 0,0 mm 1,6 km/h (1 Bft) W-SW 247 0 min 0 UV-I 30 W/m 4,8 km/h (1 Bft)
08.04.2007 19:50 13,0 C 54 % 1020,3 hPa 0,0 mm 1,6 km/h (1 Bft) SW 225 10 min 0 UV-I 23 W/m 4,8 km/h (1 Bft)
08.04.2007 20:00 12,8 C 54 % 1020,2 hPa 0,0 mm 1,6 km/h (1 Bft) SW 225 0 min 0 UV-I 19 W/m 4,8 km/h (1 Bft)
08.04.2007 20:10 12,7 C 56 % 1020,2 hPa 0,0 mm 0,0 km/h (0 Bft) W-SW 247 0 min 0 UV-I 0 W/m 4,8 km/h (1 Bft)
08.04.2007 20:20 12,4 C 57 % 1020,2 hPa 0,0 mm 0,0 km/h (0 Bft) SW 225 0 min 0 UV-I 0 W/m 4,8 km/h (1 Bft)
08.04.2007 20:30 12,3 C 56 % 1020,2 hPa 0,0 mm 1,6 km/h (1 Bft) S-SW 202 0 min 0 UV-I 0 W/m 4,8 km/h (1 Bft)
08.04.2007 20:40 12,2 C 58 % 1020,2 hPa 0,0 mm 0,0 km/h (0 Bft) S-SW 202 0 min 0 UV-I 0 W/m 3,2 km/h (1 Bft)
08.04.2007 20:50 12,0 C 58 % 1020,2 hPa 0,0 mm 1,6 km/h (1 Bft) S-SW 202 0 min 0 UV-I 0 W/m 4,8 km/h (1 Bft)
08.04.2007 21:00 11,8 C 59 % 1020,2 hPa 0,0 mm 0,0 km/h (0 Bft) W-SW 247 0 min 0 UV-I 0 W/m 3,2 km/h (1 Bft)
08.04.2007 21:10 11,5 C 59 % 1020,0 hPa 0,0 mm 0,0 km/h (0 Bft) W-SW 247 0 min 0 UV-I 0 W/m 3,2 km/h (1 Bft)
08.04.2007 21:20 11,4 C 60 % 1020,0 hPa 0,0 mm 0,0 km/h (0 Bft) S-SW 202 0 min 0 UV-I 0 W/m 4,8 km/h (1 Bft)
08.04.2007 21:30 11,2 C 60 % 1020,0 hPa 0,0 mm 0,0 km/h (0 Bft) W-SW 247 0 min 0 UV-I 0 W/m 3,2 km/h (1 Bft)
08.04.2007 21:40 10,9 C 61 % 1020,0 hPa 0,0 mm 0,0 km/h (0 Bft) SW 225 0 min 0 UV-I 0 W/m 1,6 km/h (1 Bft)
08.04.2007 21:50 10,6 C 62 % 1020,0 hPa 0,0 mm 0,0 km/h (0 Bft) N 0 0 min 0 UV-I 0 W/m 0,0 km/h (0 Bft)
08.04.2007 22:00 10,3 C 64 % 1019,9 hPa 0,0 mm 0,0 km/h (0 Bft) N 0 0 min 0 UV-I 0 W/m 0,0 km/h (0 Bft)
08.04.2007 22:10 10,1 C 65 % 1019,8 hPa 0,0 mm 0,0 km/h (0 Bft) N 0 0 min 0 UV-I 0 W/m 0,0 km/h (0 Bft)
08.04.2007 22:20 9,7 C 67 % 1019,7 hPa 0,0 mm 0,0 km/h (0 Bft) N 0 0 min 0 UV-I 0 W/m 0,0 km/h (0 Bft)
08.04.2007 22:30 9,4 C 69 % 1019,6 hPa 0,0 mm 0,0 km/h (0 Bft) SW 225 0 min 0 UV-I 0 W/m 1,6 km/h (1 Bft)
08.04.2007 22:40 9,4 C 69 % 1019,5 hPa 0,0 mm 0,0 km/h (0 Bft) SW 225 0 min 0 UV-I 0 W/m 1,6 km/h (1 Bft)
08.04.2007 22:50 9,3 C 69 % 1019,4 hPa 0,0 mm 0,0 km/h (0 Bft) SW 225 0 min 0 UV-I 0 W/m 1,6 km/h (1 Bft)
08.04.2007 23:00 9,2 C 69 % 1019,4 hPa 0,0 mm 0,0 km/h (0 Bft) SW 225 0 min 0 UV-I 0 W/m 1,6 km/h (1 Bft)
08.04.2007 23:10 9,1 C 69 % 1019,2 hPa 0,0 mm 0,0 km/h (0 Bft) SW 225 0 min 0 UV-I 0 W/m 1,6 km/h (1 Bft)
08.04.2007 23:20 9,1 C 69 % 1019,1 hPa 0,0 mm 0,0 km/h (0 Bft) SW 225 0 min 0 UV-I 0 W/m 3,2 km/h (1 Bft)
08.04.2007 23:30 9,0 C 69 % 1019,2 hPa 0,0 mm 0,0 km/h (0 Bft) W 270 0 min 0 UV-I 0 W/m 3,2 km/h (1 Bft)
08.04.2007 23:40 8,8 C 70 % 1019,1 hPa 0,0 mm 0,0 km/h (0 Bft) W 270 0 min 0 UV-I 0 W/m 3,2 km/h (1 Bft)
08.04.2007 23:50 8,6 C 70 % 1019,2 hPa 0,0 mm 0,0 km/h (0 Bft) W 270 0 min 0 UV-I 0 W/m 1,6 km/h (1 Bft)
_ Min-Zeit 03:00 16:20 23:20 - 00:00 - - - - - 00:00
Minimum _ 2,2 C 45 % 1019,1 hPa - 0,0 km/h (0 Bft) - - - - - 0,0 km/h (0 Bft)
_ Max-Zeit 15:20 04:20 08:10 00:00 14:40 - - 09:50 11:50 13:30 13:50
Maximum _ 15,0 C 92 % 1026,0 hPa 0,0 mm 4,8 km/h
W-SW (1 Bft)
- - 10 min 4 UV-I 828 W/m 16,1 km/h
N (3 Bft)
Durchschnitt _ 9,0 C 70 % 1023,9 hPa #0,0 mm 1,4 km/h (1 Bft) W-SW - #9:30 h 3 UV-I 409 W/m 5,3 km/h (1 Bft)